BBB077 KFWA-KRDU

Flight info

Callsign BBB077
Flight time 1h 9m
Altitude 37000
Route CREEP PSK GSO
Aircraft A21N/M-SDE3FGHIRWY/LB1

Departure

Time 2026-05-06 22:52
Airport Fort Wayne International Airport (KFWA)

Arrival

Time 2026-05-07 00:02
Airport Raleigh-Durham International Airport (KRDU)
Time Latitude Longitude Altitude Speed Heading
2026-05-06 22:25 40.98582 -85.18734 803 ft 0 kts
2026-05-06 22:43 40.98569 -85.18734 803 ft 2 kts
2026-05-06 22:43 40.98555 -85.18734 803 ft 2 kts
2026-05-06 22:43 40.98540 -85.18734 803 ft 1 kts
2026-05-06 22:43 40.98530 -85.18735 803 ft 2 kts 354°
2026-05-06 22:44 40.98517 -85.18728 803 ft 2 kts 324°
2026-05-06 22:44 40.98506 -85.18713 803 ft 2 kts 300°
2026-05-06 22:44 40.98501 -85.18695 803 ft 2 kts 275°
2026-05-06 22:44 40.98502 -85.18675 803 ft 2 kts 251°
2026-05-06 22:45 40.98509 -85.18659 803 ft 0 kts 228°
2026-05-06 22:45 40.98513 -85.18654 803 ft 1 kts 223°
2026-05-06 22:45 40.98515 -85.18652 803 ft 0 kts 224°
2026-05-06 22:47 40.98513 -85.18654 803 ft 2 kts 224°
2026-05-06 22:48 40.98489 -85.18685 803 ft 5 kts 224°
2026-05-06 22:48 40.98457 -85.18727 803 ft 7 kts 225°
2026-05-06 22:48 40.98420 -85.18775 803 ft 7 kts 225°
2026-05-06 22:48 40.98377 -85.18823 803 ft 8 kts 200°
2026-05-06 22:49 40.98322 -85.18793 803 ft 9 kts 135°
2026-05-06 22:49 40.98271 -85.18722 802 ft 11 kts 134°
2026-05-06 22:49 40.98215 -85.18646 802 ft 12 kts 134°
2026-05-06 22:49 40.98154 -85.18565 802 ft 12 kts 135°
2026-05-06 22:50 40.98087 -85.18478 802 ft 13 kts 135°
2026-05-06 22:50 40.98021 -85.18392 801 ft 12 kts 135°
2026-05-06 22:50 40.97955 -85.18306 801 ft 13 kts 135°
2026-05-06 22:50 40.97889 -85.18246 801 ft 11 kts 191°
2026-05-06 22:51 40.97834 -85.18299 801 ft 7 kts 227°
2026-05-06 22:51 40.97840 -85.18356 801 ft 2 kts 316°
2026-05-06 22:51 40.97850 -85.18368 801 ft 9 kts 316°
2026-05-06 22:51 40.98109 -85.18716 802 ft 94 kts 314°
2026-05-06 22:52 40.98741 -85.19565 821 ft 160 kts 310°
2026-05-06 22:52 40.99542 -85.20628 1531 ft 163 kts 313°
2026-05-06 22:52 41.00341 -85.21661 2262 ft 168 kts 313°
2026-05-06 22:52 41.01201 -85.22792 2827 ft 184 kts 313°
2026-05-06 22:53 41.02050 -85.24041 3607 ft 186 kts 300°
2026-05-06 22:53 41.02297 -85.25649 4426 ft 185 kts 262°
2026-05-06 22:53 41.01699 -85.27118 5183 ft 190 kts 226°
2026-05-06 22:53 41.00501 -85.27864 5930 ft 199 kts 190°
2026-05-06 22:54 40.99141 -85.27583 6681 ft 208 kts 160°
2026-05-06 22:54 40.97908 -85.26604 7395 ft 214 kts 150°
2026-05-06 22:54 40.96641 -85.25434 7888 ft 231 kts 149°
2026-05-06 22:54 40.95265 -85.24144 8304 ft 254 kts 149°
2026-05-06 22:55 40.93788 -85.22765 8845 ft 272 kts 149°
2026-05-06 22:55 40.92184 -85.21275 9408 ft 290 kts 150°
2026-05-06 22:55 40.90585 -85.19793 10102 ft 300 kts 150°
2026-05-06 22:55 40.88835 -85.18175 10775 ft 312 kts 151°
2026-05-06 22:56 40.87022 -85.16508 11250 ft 330 kts 151°
2026-05-06 22:56 40.85080 -85.14729 11699 ft 348 kts 151°
2026-05-06 22:56 40.83045 -85.12872 12112 ft 367 kts 151°
2026-05-06 22:56 40.80897 -85.10908 12579 ft 382 kts 151°
2026-05-06 22:57 40.78679 -85.08870 13287 ft 389 kts 152°
2026-05-06 22:57 40.76477 -85.06850 14037 ft 393 kts 153°
2026-05-06 22:57 40.74228 -85.04791 14805 ft 397 kts 153°
2026-05-06 22:57 40.71940 -85.02698 15533 ft 402 kts 153°
2026-05-06 22:58 40.69636 -85.00596 16146 ft 408 kts 154°
2026-05-06 22:58 40.67269 -84.98440 16816 ft 413 kts 155°
2026-05-06 22:58 40.64914 -84.96300 17439 ft 418 kts 155°
2026-05-06 22:58 40.62518 -84.94121 18094 ft 422 kts 155°
2026-05-06 22:59 40.60069 -84.91895 18750 ft 426 kts 156°
2026-05-06 22:59 40.57638 -84.89688 19349 ft 431 kts 156°
2026-05-06 22:59 40.55170 -84.87448 19958 ft 434 kts 157°
2026-05-06 22:59 40.52649 -84.85165 20505 ft 440 kts 158°
2026-05-06 23:00 40.50124 -84.82881 21088 ft 443 kts 158°
2026-05-06 23:00 40.47591 -84.80592 21637 ft 448 kts 158°
2026-05-06 23:00 40.45014 -84.78265 22123 ft 453 kts 158°
2026-05-06 23:00 40.42439 -84.75936 22715 ft 455 kts 159°
2026-05-06 23:01 40.39816 -84.73567 23224 ft 459 kts 159°
2026-05-06 23:01 40.37154 -84.71169 23757 ft 461 kts 159°
2026-05-06 23:01 40.34523 -84.68803 24260 ft 464 kts 159°
2026-05-06 23:01 40.31852 -84.66402 24699 ft 467 kts 160°
2026-05-06 23:02 40.29180 -84.63999 25113 ft 471 kts 160°
2026-05-06 23:02 40.26454 -84.61556 25539 ft 475 kts 160°
2026-05-06 23:02 40.23735 -84.59116 26004 ft 477 kts 160°
2026-05-06 23:02 40.20977 -84.56642 26447 ft 479 kts 160°
2026-05-06 23:03 40.18243 -84.54196 26808 ft 483 kts 160°
2026-05-06 23:03 40.15464 -84.51717 27114 ft 488 kts 161°
2026-05-06 23:03 40.12675 -84.49226 27518 ft 489 kts 160°
2026-05-06 23:03 40.09879 -84.46718 28159 ft 485 kts 161°
2026-05-06 23:04 40.07111 -84.44233 28752 ft 482 kts 161°
2026-05-06 23:04 40.04359 -84.41781 29159 ft 483 kts 161°
2026-05-06 23:04 40.01565 -84.39301 29620 ft 483 kts 162°
2026-05-06 23:04 39.98811 -84.36848 30168 ft 480 kts 162°
2026-05-06 23:05 39.96088 -84.34422 30584 ft 481 kts 162°
2026-05-06 23:05 39.93365 -84.31792 30983 ft 489 kts 158°
2026-05-06 23:05 39.90756 -84.28947 31347 ft 498 kts 155°
2026-05-06 23:05 39.88213 -84.25800 31686 ft 508 kts 150°
2026-05-06 23:06 39.85754 -84.22510 32036 ft 510 kts 149°
2026-05-06 23:06 39.83293 -84.19173 32396 ft 510 kts 150°
2026-05-06 23:06 39.80853 -84.15870 32712 ft 511 kts 150°
2026-05-06 23:06 39.78379 -84.12530 32971 ft 512 kts 149°
2026-05-06 23:07 39.75930 -84.09238 33315 ft 512 kts 150°
2026-05-06 23:07 39.73456 -84.05914 33713 ft 510 kts 150°
2026-05-06 23:07 39.71004 -84.02638 34036 ft 510 kts 150°
2026-05-06 23:07 39.68504 -83.99305 34350 ft 511 kts 150°
2026-05-06 23:08 39.66043 -83.96027 34638 ft 512 kts 150°
2026-05-06 23:08 39.63558 -83.92722 34989 ft 512 kts 150°
2026-05-06 23:08 39.61071 -83.89413 35312 ft 512 kts 150°
2026-05-06 23:08 39.58592 -83.86114 35684 ft 510 kts 150°
2026-05-06 23:09 39.56139 -83.82863 35937 ft 511 kts 150°
2026-05-06 23:09 39.53649 -83.79568 36138 ft 513 kts 150°
2026-05-06 23:09 39.51163 -83.76286 36360 ft 514 kts 150°
2026-05-06 23:09 39.48663 -83.72984 36530 ft 517 kts 150°
2026-05-06 23:10 39.46150 -83.69665 36755 ft 518 kts 150°
2026-05-06 23:10 39.43636 -83.66344 36964 ft 518 kts 149°
2026-05-06 23:10 39.41102 -83.63007 37003 ft 522 kts 149°
2026-05-06 23:11 39.36010 -83.56305 37000 ft 522 kts 149°
2026-05-06 23:11 39.30898 -83.49585 36995 ft 523 kts 149°
2026-05-06 23:12 39.25809 -83.42915 37001 ft 522 kts 149°
2026-05-06 23:12 39.20726 -83.36268 36999 ft 521 kts 149°
2026-05-06 23:13 39.15610 -83.29597 37008 ft 522 kts 149°
2026-05-06 23:13 39.13216 -83.25952 37001 ft 541 kts 140°
2026-05-06 23:13 39.11059 -83.22010 37005 ft 547 kts 136°
2026-05-06 23:14 39.06857 -83.13866 36998 ft 545 kts 136°
2026-05-06 23:14 39.02630 -83.05827 37003 ft 545 kts 137°
2026-05-06 23:15 38.98320 -82.97797 37005 ft 546 kts 137°
2026-05-06 23:15 38.94042 -82.89891 36993 ft 543 kts 137°
2026-05-06 23:16 38.89719 -82.81945 36998 ft 544 kts 137°
2026-05-06 23:16 38.85366 -82.73953 36996 ft 546 kts 137°
2026-05-06 23:17 38.81008 -82.65964 36996 ft 545 kts 136°
2026-05-06 23:17 38.76676 -82.58046 36978 ft 547 kts 136°
2026-05-06 23:18 38.72318 -82.50088 36991 ft 545 kts 137°
2026-05-06 23:18 38.67977 -82.42184 36989 ft 543 kts 136°
2026-05-06 23:19 38.63621 -82.34285 36972 ft 543 kts 137°
2026-05-06 23:19 38.59237 -82.26356 36973 ft 546 kts 137°
2026-05-06 23:20 38.54875 -82.18471 36978 ft 545 kts 136°
2026-05-06 23:20 38.50507 -82.10590 36974 ft 544 kts 137°
2026-05-06 23:21 38.46098 -82.02702 36973 ft 548 kts 137°
2026-05-06 23:21 38.41701 -81.94840 36965 ft 547 kts 136°
2026-05-06 23:22 38.37291 -81.86951 36978 ft 546 kts 136°
2026-05-06 23:22 38.32881 -81.79086 36834 ft 548 kts 136°
2026-05-06 23:22 38.30693 -81.75201 36466 ft 548 kts 136°
2026-05-06 23:23 38.28471 -81.71244 36105 ft 547 kts 136°
2026-05-06 23:23 38.26251 -81.67297 35735 ft 547 kts 136°
2026-05-06 23:23 38.24074 -81.63424 35382 ft 544 kts 136°
2026-05-06 23:23 38.21869 -81.59506 35022 ft 543 kts 136°
2026-05-06 23:24 38.19671 -81.55615 34656 ft 544 kts 137°
2026-05-06 23:24 38.17454 -81.51691 34300 ft 543 kts 136°
2026-05-06 23:24 38.15260 -81.47818 33943 ft 542 kts 136°
2026-05-06 23:24 38.13077 -81.43971 33570 ft 542 kts 136°
2026-05-06 23:25 38.10867 -81.40085 33237 ft 543 kts 136°
2026-05-06 23:25 38.08688 -81.36247 32910 ft 541 kts 136°
2026-05-06 23:25 38.06463 -81.32333 32567 ft 540 kts 136°
2026-05-06 23:25 38.04293 -81.28520 32235 ft 538 kts 136°
2026-05-06 23:26 38.02109 -81.24683 31911 ft 536 kts 136°
2026-05-06 23:26 37.99939 -81.20884 31581 ft 535 kts 136°
2026-05-06 23:26 37.97758 -81.17059 31246 ft 531 kts 136°
2026-05-06 23:26 37.95607 -81.13300 30913 ft 528 kts 136°
2026-05-06 23:27 37.93455 -81.09547 30581 ft 527 kts 135°
2026-05-06 23:27 37.91319 -81.05828 30252 ft 526 kts 136°
2026-05-06 23:27 37.89154 -81.02055 29925 ft 525 kts 135°
2026-05-06 23:27 37.87015 -80.98339 29592 ft 525 kts 135°
2026-05-06 23:28 37.84871 -80.94615 29261 ft 523 kts 135°
2026-05-06 23:28 37.82756 -80.90938 29003 ft 520 kts 135°
2026-05-06 23:28 37.80620 -80.87232 28978 ft 520 kts 135°
2026-05-06 23:29 37.76356 -80.79851 28969 ft 521 kts 135°
2026-05-06 23:29 37.72109 -80.72514 28968 ft 519 kts 135°
2026-05-06 23:30 37.67857 -80.65183 28973 ft 519 kts 134°
2026-05-06 23:30 37.63590 -80.57848 28970 ft 520 kts 134°
2026-05-06 23:31 37.59326 -80.50530 28968 ft 522 kts 134°
2026-05-06 23:31 37.55065 -80.43224 28967 ft 517 kts 134°
2026-05-06 23:32 37.50815 -80.35964 28961 ft 514 kts 134°
2026-05-06 23:32 37.46565 -80.28715 28959 ft 513 kts 134°
2026-05-06 23:33 37.42361 -80.21557 28950 ft 510 kts 135°
2026-05-06 23:33 37.38112 -80.14352 28949 ft 512 kts 134°
2026-05-06 23:34 37.33887 -80.07189 28955 ft 511 kts 134°
2026-05-06 23:34 37.29662 -80.00047 28946 ft 513 kts 134°
2026-05-06 23:35 37.25451 -79.92809 28925 ft 517 kts 129°
2026-05-06 23:35 37.23818 -79.88778 28925 ft 527 kts 117°
2026-05-06 23:35 37.22772 -79.84351 28927 ft 535 kts 106°
2026-05-06 23:36 37.21581 -79.75145 28926 ft 539 kts 102°
2026-05-06 23:36 37.20556 -79.65854 28922 ft 538 kts 100°
2026-05-06 23:37 37.19497 -79.56606 28919 ft 538 kts 101°
2026-05-06 23:37 37.18462 -79.47323 28920 ft 539 kts 101°
2026-05-06 23:38 37.17435 -79.38077 28920 ft 537 kts 101°
2026-05-06 23:38 37.16398 -79.28832 28830 ft 536 kts 101°
2026-05-06 23:38 37.15905 -79.24240 28571 ft 533 kts 101°
2026-05-06 23:39 37.15409 -79.19659 28313 ft 532 kts 101°
2026-05-06 23:39 37.14898 -79.15058 28058 ft 530 kts 101°
2026-05-06 23:39 37.14399 -79.10541 27804 ft 526 kts 101°
2026-05-06 23:39 37.13913 -79.05985 27551 ft 522 kts 101°
2026-05-06 23:40 37.13447 -79.01540 27297 ft 521 kts 101°
2026-05-06 23:40 37.12978 -78.97042 27039 ft 513 kts 101°
2026-05-06 23:40 37.12218 -78.92770 26767 ft 494 kts 113°
2026-05-06 23:40 37.10826 -78.88999 26508 ft 472 kts 128°
2026-05-06 23:41 37.08915 -78.85807 26261 ft 452 kts 138°
2026-05-06 23:41 37.06835 -78.82872 26008 ft 447 kts 140°
2026-05-06 23:41 37.04745 -78.80032 25756 ft 446 kts 140°
2026-05-06 23:41 37.02657 -78.77201 25502 ft 443 kts 140°
2026-05-06 23:42 37.00552 -78.74357 25248 ft 441 kts 140°
2026-05-06 23:42 36.98441 -78.71590 24989 ft 435 kts 145°
2026-05-06 23:42 36.96053 -78.69514 24730 ft 415 kts 162°
2026-05-06 23:42 36.93369 -78.68407 24472 ft 393 kts 181°
2026-05-06 23:43 36.90717 -78.68378 24220 ft 372 kts 199°
2026-05-06 23:43 36.88338 -78.69360 23979 ft 351 kts 217°
2026-05-06 23:43 36.86512 -78.71188 23924 ft 335 kts 236°
2026-05-06 23:43 36.85372 -78.73664 23924 ft 326 kts 253°
2026-05-06 23:44 36.84801 -78.76378 23932 ft 325 kts 259°
2026-05-06 23:44 36.84365 -78.79141 23926 ft 323 kts 260°
2026-05-06 23:44 36.83949 -78.81919 23924 ft 325 kts 260°
2026-05-06 23:44 36.83535 -78.84671 23921 ft 324 kts 261°
2026-05-06 23:45 36.83124 -78.87402 23922 ft 322 kts 261°
2026-05-06 23:45 36.82710 -78.90157 23922 ft 323 kts 260°
2026-05-06 23:45 36.82305 -78.92896 23923 ft 323 kts 261°
2026-05-06 23:45 36.81900 -78.95629 23860 ft 320 kts 260°
2026-05-06 23:46 36.81509 -78.98338 23460 ft 317 kts 260°
2026-05-06 23:46 36.81112 -79.01063 22884 ft 318 kts 260°
2026-05-06 23:46 36.80303 -79.03609 22305 ft 323 kts 240°
2026-05-06 23:46 36.78892 -79.05741 22085 ft 318 kts 230°
2026-05-06 23:47 36.77134 -79.07376 21880 ft 319 kts 216°
2026-05-06 23:47 36.75033 -79.08358 21486 ft 325 kts 201°
2026-05-06 23:47 36.72744 -79.08532 20897 ft 340 kts 184°
2026-05-06 23:47 36.70412 -79.07842 20259 ft 354 kts 171°
2026-05-06 23:48 36.68091 -79.06790 19709 ft 351 kts 169°
2026-05-06 23:48 36.65831 -79.05717 19136 ft 349 kts 168°
2026-05-06 23:48 36.63575 -79.04637 18568 ft 346 kts 168°
2026-05-06 23:48 36.61343 -79.03572 17993 ft 343 kts 168°
2026-05-06 23:49 36.59151 -79.02527 17461 ft 338 kts 168°
2026-05-06 23:49 36.56967 -79.01497 16860 ft 336 kts 168°
2026-05-06 23:49 36.54769 -79.00460 16242 ft 334 kts 167°
2026-05-06 23:49 36.52621 -78.99444 15677 ft 331 kts 167°
2026-05-06 23:50 36.50475 -78.98433 15067 ft 329 kts 167°
2026-05-06 23:50 36.46223 -78.96429 13876 ft 324 kts 167°
2026-05-06 23:50 36.44147 -78.95451 13289 ft 322 kts 167°
2026-05-06 23:51 36.42068 -78.94473 12725 ft 318 kts 167°
2026-05-06 23:51 36.40046 -78.93337 12141 ft 323 kts 155°
2026-05-06 23:51 36.38255 -78.91602 11572 ft 327 kts 141°
2026-05-06 23:51 36.36677 -78.89613 11007 ft 325 kts 138°
2026-05-06 23:52 36.35142 -78.87587 10445 ft 322 kts 138°
2026-05-06 23:52 36.33499 -78.85776 9871 ft 310 kts 156°
2026-05-06 23:52 36.31586 -78.84757 9359 ft 297 kts 168°
2026-05-06 23:52 36.29625 -78.84005 8925 ft 295 kts 170°
2026-05-06 23:53 36.27660 -78.83297 8564 ft 292 kts 171°
2026-05-06 23:53 36.25698 -78.82600 8206 ft 289 kts 171°
2026-05-06 23:53 36.23842 -78.81694 7802 ft 296 kts 154°
2026-05-06 23:53 36.22108 -78.80276 7441 ft 293 kts 155°
2026-05-06 23:54 36.20327 -78.79108 7084 ft 288 kts 159°
2026-05-06 23:54 36.18535 -78.78020 6715 ft 286 kts 159°
2026-05-06 23:54 36.16763 -78.76925 6363 ft 284 kts 158°
2026-05-06 23:54 36.15171 -78.75486 6008 ft 290 kts 137°
2026-05-06 23:55 36.13897 -78.73538 5952 ft 291 kts 131°
2026-05-06 23:55 36.12702 -78.71545 5939 ft 281 kts 130°
2026-05-06 23:55 36.11597 -78.69662 5934 ft 265 kts 130°
2026-05-06 23:55 36.10515 -78.67921 5925 ft 246 kts 141°
2026-05-06 23:56 36.09129 -78.66844 5750 ft 227 kts 165°
2026-05-06 23:56 36.07652 -78.66212 5329 ft 226 kts 169°
2026-05-06 23:56 36.06129 -78.65664 4891 ft 225 kts 170°
2026-05-06 23:56 36.04631 -78.65151 4430 ft 222 kts 170°
2026-05-06 23:57 36.03165 -78.64654 3979 ft 219 kts 170°
2026-05-06 23:57 36.01710 -78.64172 3512 ft 217 kts 170°
2026-05-06 23:57 36.00251 -78.63723 3089 ft 210 kts 177°
2026-05-06 23:57 35.98873 -78.63973 2952 ft 200 kts 212°
2026-05-06 23:58 35.97895 -78.65161 2972 ft 201 kts 234°
2026-05-06 23:58 35.97134 -78.66616 2917 ft 200 kts 240°
2026-05-06 23:58 35.96611 -78.68128 2813 ft 181 kts 250°
2026-05-06 23:58 35.96112 -78.69424 2754 ft 157 kts 233°
2026-05-06 23:59 35.95432 -78.70383 2569 ft 141 kts 224°
2026-05-06 23:59 35.94712 -78.71200 2176 ft 140 kts 224°
2026-05-06 23:59 35.94038 -78.72002 1888 ft 133 kts 225°
2026-05-06 23:59 35.93399 -78.72827 1641 ft 131 kts 226°
2026-05-07 00:00 35.92746 -78.73613 1420 ft 131 kts 225°
2026-05-07 00:00 35.92107 -78.74406 1258 ft 131 kts 225°
2026-05-07 00:00 35.91459 -78.75206 1032 ft 130 kts 225°
2026-05-07 00:00 35.90826 -78.76004 873 ft 132 kts 226°
2026-05-07 00:01 35.90176 -78.76806 688 ft 133 kts 225°
2026-05-07 00:01 35.89525 -78.77617 486 ft 134 kts 226°
2026-05-07 00:01 35.88886 -78.78415 401 ft 118 kts 226°
2026-05-07 00:01 35.88421 -78.78992 399 ft 70 kts 225°
2026-05-07 00:02 35.88174 -78.79297 393 ft 39 kts 226°
2026-05-07 00:02 35.88032 -78.79465 389 ft 14 kts 206°
2026-05-07 00:02 35.87969 -78.79487 389 ft 5 kts 177°
2026-05-07 00:02 35.87946 -78.79479 389 ft 1 kts 152°
2026-05-07 00:03 35.87939 -78.79472 389 ft 0 kts 131°
2026-05-07 00:03 35.87937 -78.79469 390 ft 0 kts 128°
2026-05-07 00:03 35.87936 -78.79466 390 ft 10 kts 124°
2026-05-07 00:03 35.87944 -78.79385 392 ft 8 kts 52°
2026-05-07 00:04 35.87962 -78.79363 392 ft 3 kts 42°
2026-05-07 00:04 35.87977 -78.79346 393 ft 3 kts 42°
2026-05-07 00:04 35.87979 -78.79344 393 ft 0 kts 42°
2026-05-07 00:04 35.87982 -78.79340 393 ft 1 kts 44°
2026-05-07 00:05 35.87992 -78.79316 393 ft 4 kts 83°
2026-05-07 00:05 35.87980 -78.79276 394 ft 5 kts 136°
2026-05-07 00:05 35.87945 -78.79281 394 ft 6 kts 220°
2026-05-07 00:05 35.87908 -78.79327 393 ft 7 kts 226°
2026-05-07 00:06 35.87875 -78.79343 393 ft 4 kts 153°
2026-05-07 00:06 35.87857 -78.79327 393 ft 1 kts 137°
2026-05-07 00:06 35.87846 -78.79314 394 ft 3 kts 136°
2026-05-07 00:06 35.87844 -78.79312 394 ft 0 kts 136°